This is the latest recevied weather packets stored in our database for station/object EA1FLU-10. If no packets are shown the sender has not sent any weather packets the latest 10 day(s).
| Time | Temp. | Humidity | Pressure | Rain* | Wind** | Luminosity | Snow |
|---|---|---|---|---|---|---|---|
| 1777603531 | 15° C | 57% | 1024.1 hPa | - | - | - | - |
| 1777601731 | 15° C | 57% | 1024.2 hPa | - | - | - | - |
| 1777599931 | 15.56° C | 56% | 1024.2 hPa | - | - | - | - |
| 1777598131 | 15.56° C | 56% | 1024.2 hPa | - | - | - | - |
| 1777596331 | 16.11° C | 55% | 1024.3 hPa | - | - | - | - |
| 1777594531 | 16.11° C | 55% | 1024.3 hPa | - | - | - | - |
| 1777592731 | 16.67° C | 55% | 1024.5 hPa | - | - | - | - |
| 1777590931 | 16.67° C | 55% | 1024.3 hPa | - | - | - | - |
| 1777589131 | 17.22° C | 55% | 1024.1 hPa | - | - | - | - |
| 1777587331 | 17.78° C | 54% | 1024 hPa | - | - | - | - |
| 1777585531 | 17.78° C | 55% | 1023.9 hPa | - | - | - | - |
| 1777583731 | 18.33° C | 54% | 1023.9 hPa | - | - | - | - |
| 1777581931 | 18.89° C | 53% | 1023.7 hPa | - | - | - | - |
| 1777580131 | 18.89° C | 53% | 1023.6 hPa | - | - | - | - |
| 1777578331 | 19.44° C | 53% | 1023.4 hPa | - | - | - | - |
| 1777576531 | 20° C | 53% | 1023 hPa | - | - | - | - |
| 1777574730 | 20.56° C | 51% | 1022.7 hPa | - | - | - | - |
| 1777572930 | 21.11° C | 49% | 1022.6 hPa | - | - | - | - |
| 1777571130 | 21.11° C | 47% | 1022.5 hPa | - | - | - | - |
| 1777569330 | 21.67° C | 47% | 1022.5 hPa | - | - | - | - |
| 1777567530 | 22.22° C | 47% | 1022.4 hPa | - | - | - | - |
| 1777565730 | 22.22° C | 47% | 1022.3 hPa | - | - | - | - |
| 1777563930 | 22.22° C | 47% | 1022.3 hPa | - | - | - | - |
| 1777562130 | 22.78° C | 47% | 1022.2 hPa | - | - | - | - |
| 1777560330 | 22.22° C | 48% | 1022.3 hPa | - | - | - | - |
* Rain since midnight (hover to see other rain measurements)
** Current wind speed in m/s (hover to see current wind gust speed)